{"data":{"norad_id":62988,"intl_designator":"2025-031H","name":"STARLINK-11542 [DTC]","alt_names":[],"object_type":"PAYLOAD","status":"ACTIVE","operator":null,"country":"US","launch_date":"2025-02-11","launch_site_code":"AFETR","launch_vehicle":null,"mission":null,"orbit_class":"UNKNOWN","rcs_meters":null,"size_class":null,"mass_kg":null,"dimensions":null,"purposes":["comms"],"wikipedia_slug":null,"has_3d_model":false,"image_url":null,"decayed_at":null,"tle_current":{"epoch":"2026-05-25T01:00:17.506656Z","epoch_age_seconds":65348,"freshness":"FRESH","line1":"1 62988U 25031H   26145.04186929  .00171901  00000+0  13134-2 0  9993","line2":"2 62988  42.9998 260.9594 0000838  50.8140 309.2802 15.70881271 74722","mean_motion":15.70881271,"eccentricity":8.38e-5,"inclination_deg":42.9998,"raan_deg":260.9594,"arg_perigee_deg":50.814,"mean_anomaly_deg":309.2802,"bstar":0.0013134,"rev_number":7472,"period_min":91.668290060096,"perigee_km":355.81275162726,"apogee_km":356.94145619107,"semimajor_km":6734.5141039092,"source":"CELESTRAK","updated_at":"2026-05-25T13:38:19.831482Z"}}}